Location: Moscow
(55.7500°N, 37.5830°E)
Time: 16:43:48
(UTC+03:00)

A-11 Canister half - Pass Details

Date: 06 December 2021
Orbit: 1516 x 1684 km, 47.2° (Epoch: 19 January)

Event Time Altitude Azimuth Distance (km) Brightness Sun altitude
Rises 05:30:22 0° 187° (S) 4,736 11.5 -25.4°
Reaches altitude 10° 05:34:39 10° 170° (S) 3,786 11.2 -24.8°
Maximum altitude 05:40:35 18° 131° (SE) 3,210 11.3 -24.0°
Drops below altitude 10° 05:46:37 10° 93° (E) 3,879 12.2 -23.2°
Sets 05:51:03 0° 77° (ENE) 4,896 12.8 -22.5°
